Terminal Aerodrome Forecast
Issued by NWS

Home | Current Version | Previous Version | Graphics & Text | Print | Product List | Glossary On
Versions: 1 2 3 4 5 6 7 8 9 10 11 12 13 14 15 16 17 18 19 20 21 22 23 24
000
FTUS41 KCLE 131000 AAA
TAFFDY
TAF AMD
KFDY 131018Z 1310/1406 19012KT P6SM BKN050 WS020/22040KT
     FM131400 22018G28KT P6SM BKN050
     FM131900 22022G32KT P6SM SCT050 BKN200
     FM140000 22012G22KT P6SM SCT050 BKN200=

USA.gov is the U.S. government's official web portal to all federal, state and local government web resources and services.